Location: Sungai Bunut
(2.6333°N, 113.7333°E)
Time: 17:04:47
(UTC+00:00)

Vanguard 3 - Pass Details

Date: 03 December 2023
Orbit: 508 x 3239 km, 33.4° (Epoch: 28 February)

Event Time Altitude Azimuth Distance (km) Brightness Sun altitude
Rises 08:24:59 0° 219° (SW) 6,727 12.9 24.2°
Reaches altitude 10° 08:30:02 10° 210° (SSW) 5,946 12.6 23.0°
Maximum altitude 08:47:01 36° 150° (SSE) 4,339 11.0 19.2°
Drops below altitude 10° 09:02:20 10° 90° (E) 5,457 10.9 15.7°
Sets 09:06:35 0° 82° (E) 6,150 11.0 14.7°
